contact:dominique.lefevre@mio.osupytheas.fr, maurice.libes@osupytheas.fr
Project:EMSO Ligure-ouest http://www.emso-fr.org/EMSO-France
Sensor Aquadopp, line 13 Serial AQD14315 
DOI : "https://doi.org/10.17882/74513; https://doi.org/10.17882/83244" 
Title:EMSO Ligure Ouest : Data ligne ALBATROSS capteur AQUADOPP - deploiement 2021
Id,Date,Profondeur,Latitude,Longitude,X_East,Y_North,Z_Up,Amplitude_X,Amplitude_Y,Amplitude_Z,Batterie,SoundSpeed,Heading,Pitch,Roll,Pressure,Temperature,Speed,Direction
, , m, degrees North, degrees East, m.s-1, m.s-1,m.s-1, 1, 1, 1, Volt, m.s-1, degree, degree, degree, dbar, degree_C, m.s-1, degree
11,2022-04-29T22:00:00,2200.0,42.79,6.0312,0.033,0.0,-0.007,52.0,50.0,52.0,11.9,1504.2,218.2,-0.2,0.1,2192.804,13.16,0.033,90.0
11,2022-04-29T22:30:00,2200.0,42.79,6.0312,0.027,0.007,0.023,50.0,52.0,52.0,12.0,1504.2,222.5,-0.6,0.2,2192.806,13.16,0.027,75.5
11,2022-04-29T23:00:00,2200.0,42.79,6.0312,0.034,0.006,0.009,49.0,50.0,51.0,12.0,1504.2,216.5,-0.2,0.3,2192.743,13.16,0.034,80.0
11,2022-04-29T23:30:00,2200.0,42.79,6.0312,0.043,0.002,0.009,53.0,54.0,55.0,11.9,1504.2,211.0,-0.5,0.3,2192.725,13.16,0.043,87.3
11,2022-04-30T00:00:00,2200.0,42.79,6.0312,0.024,-0.005,0.013,47.0,49.0,53.0,12.0,1504.2,225.4,-0.5,0.0,2192.755,13.16,0.024,101.8
11,2022-04-30T00:30:00,2200.0,42.79,6.0312,0.026,-0.003,0.015,50.0,51.0,51.0,12.0,1504.2,223.3,-0.4,0.3,2192.767,13.16,0.026,96.6
11,2022-04-30T01:00:00,2200.0,42.79,6.0312,0.038,-0.008,0.015,50.0,52.0,52.0,12.0,1504.2,227.3,-0.2,0.2,2192.736,13.16,0.038,101.9
11,2022-04-30T01:30:00,2200.0,42.79,6.0312,0.03,0.0,-0.002,47.0,51.0,51.0,12.0,1504.2,227.1,-0.6,0.2,2192.707,13.16,0.03,90.0
11,2022-04-30T02:00:00,2200.0,42.79,6.0312,0.041,-0.006,0.048,49.0,49.0,53.0,12.0,1504.2,225.4,-0.4,0.0,2192.709,13.16,0.041,98.3
11,2022-04-30T02:30:00,2200.0,42.79,6.0312,0.04,0.005,0.0,48.0,51.0,51.0,12.0,1504.2,227.2,-0.5,0.2,2192.717,13.16,0.04,82.9
11,2022-04-30T03:00:00,2200.0,42.79,6.0312,0.036,-0.012,0.027,46.0,49.0,52.0,12.0,1504.2,228.5,-0.6,0.2,2192.742,13.16,0.037,108.4
11,2022-04-30T03:30:00,2200.0,42.79,6.0312,0.031,-0.002,0.025,48.0,49.0,54.0,12.0,1504.2,225.8,-0.1,0.0,2192.751,13.16,0.031,93.7
11,2022-04-30T04:00:00,2200.0,42.79,6.0312,0.029,-0.005,0.006,48.0,53.0,55.0,12.0,1504.2,225.3,-0.3,0.0,2192.775,13.16,0.029,99.8
11,2022-04-30T04:30:00,2200.0,42.79,6.0312,0.031,-0.002,-0.003,49.0,51.0,51.0,12.0,1504.2,226.9,-0.4,0.0,2192.809,13.16,0.031,93.7
11,2022-04-30T05:00:00,2200.0,42.79,6.0312,0.032,-0.005,0.015,49.0,54.0,52.0,12.0,1504.2,219.6,-0.2,0.0,2192.829,13.16,0.032,98.9
11,2022-04-30T05:30:00,2200.0,42.79,6.0312,0.018,-0.002,-0.003,46.0,52.0,51.0,12.0,1504.2,226.1,-0.4,0.3,2192.878,13.16,0.018,96.3
11,2022-04-30T06:00:00,2200.0,42.79,6.0312,0.034,-0.003,0.01,47.0,54.0,52.0,12.0,1504.2,229.4,-0.4,0.4,2192.856,13.16,0.034,95.0
11,2022-04-30T06:30:00,2200.0,42.79,6.0312,0.03,-0.003,0.002,47.0,53.0,52.0,12.0,1504.2,222.8,-0.3,0.3,2192.875,13.16,0.03,95.7
11,2022-04-30T07:00:00,2200.0,42.79,6.0312,0.026,-0.003,0.015,46.0,48.0,51.0,12.0,1504.2,217.1,-0.2,-0.1,2192.879,13.16,0.026,96.6
11,2022-04-30T07:30:00,2200.0,42.79,6.0312,0.027,0.011,0.009,49.0,51.0,52.0,12.0,1504.2,216.4,-0.2,0.0,2192.899,13.16,0.029,67.8
11,2022-04-30T08:00:00,2200.0,42.79,6.0312,0.02,-0.013,0.005,51.0,53.0,53.0,12.0,1504.2,220.3,-0.2,0.0,2192.94,13.16,0.023,123.0
11,2022-04-30T08:30:00,2200.0,42.79,6.0312,0.028,-0.005,0.007,50.0,51.0,54.0,12.0,1504.2,217.4,-0.2,-0.1,2192.857,13.16,0.028,100.1
11,2022-04-30T09:00:00,2200.0,42.79,6.0312,0.021,0.003,0.003,49.0,53.0,52.0,12.0,1504.2,214.1,-0.2,0.2,2192.838,13.16,0.021,81.9
11,2022-04-30T09:30:00,2200.0,42.79,6.0312,0.022,-0.003,-0.01,50.0,54.0,52.0,11.9,1504.2,214.3,0.0,0.3,2192.828,13.16,0.022,97.8
11,2022-04-30T10:00:00,2200.0,42.79,6.0312,0.007,0.003,0.016,51.0,54.0,52.0,12.0,1504.2,211.0,-0.2,0.0,2192.74,13.16,0.007,66.8
11,2022-04-30T10:30:00,2200.0,42.79,6.0312,0.018,-0.008,-0.004,49.0,52.0,53.0,11.9,1504.2,205.5,-0.3,0.0,2192.757,13.16,0.019,114.0
11,2022-04-30T11:00:00,2200.0,42.79,6.0312,0.029,0.015,0.014,48.0,48.0,53.0,12.0,1504.2,198.8,-0.2,0.2,2192.79,13.16,0.032,62.6
11,2022-04-30T11:30:00,2200.0,42.79,6.0312,0.032,0.013,0.006,49.0,51.0,52.0,12.0,1504.2,206.3,0.0,-0.1,2192.726,13.16,0.034,67.9
11,2022-04-30T12:00:00,2200.0,42.79,6.0312,0.018,-0.005,0.019,48.0,52.0,53.0,11.9,1504.2,202.5,-0.3,0.0,2192.736,13.16,0.018,105.5
11,2022-04-30T12:30:00,2200.0,42.79,6.0312,0.032,0.005,0.012,51.0,50.0,54.0,12.0,1504.2,210.0,-0.6,0.1,2192.723,13.16,0.032,81.1
11,2022-04-30T13:00:00,2200.0,42.79,6.0312,0.031,0.002,0.003,47.0,50.0,54.0,11.9,1504.2,211.4,-0.4,0.2,2192.675,13.16,0.031,86.3
11,2022-04-30T13:30:00,2200.0,42.79,6.0312,0.03,0.009,0.002,47.0,50.0,51.0,12.0,1504.2,207.8,-0.2,0.3,2192.622,13.16,0.031,73.3
11,2022-04-30T14:00:00,2200.0,42.79,6.0312,0.031,-0.001,0.013,46.0,50.0,52.0,12.0,1504.2,213.3,-0.6,-0.1,2192.663,13.16,0.031,91.8
11,2022-04-30T14:30:00,2200.0,42.79,6.0312,0.047,0.006,0.026,47.0,52.0,53.0,12.0,1504.2,214.4,-0.5,0.2,2192.693,13.16,0.047,82.7
11,2022-04-30T15:00:00,2200.0,42.79,6.0312,0.036,0.0,0.017,52.0,53.0,53.0,12.0,1504.2,216.7,-0.2,0.1,2192.694,13.16,0.036,90.0
11,2022-04-30T15:30:00,2200.0,42.79,6.0312,0.023,-0.009,0.007,52.0,50.0,55.0,12.0,1504.2,218.1,-0.1,0.3,2192.71,13.16,0.024,111.4
11,2022-04-30T16:00:00,2200.0,42.79,6.0312,0.027,-0.003,-0.001,52.0,51.0,54.0,12.0,1504.2,222.0,-0.7,0.4,2192.699,13.16,0.027,96.3
11,2022-04-30T16:30:00,2200.0,42.79,6.0312,0.031,-0.003,0.009,56.0,52.0,56.0,12.0,1504.2,222.3,-0.3,0.4,2192.754,13.16,0.031,95.5
11,2022-04-30T17:00:00,2200.0,42.79,6.0312,0.031,-0.003,-0.006,48.0,56.0,54.0,11.9,1504.2,223.5,-0.6,0.4,2192.766,13.16,0.031,95.5
11,2022-04-30T17:30:00,2200.0,42.79,6.0312,0.032,-0.01,0.005,48.0,52.0,54.0,11.9,1504.2,226.1,-0.3,0.3,2192.833,13.16,0.033,107.4
11,2022-04-30T18:00:00,2200.0,42.79,6.0312,0.03,-0.002,0.021,50.0,54.0,52.0,12.0,1504.2,227.1,-0.4,0.3,2192.856,13.16,0.03,93.8
11,2022-04-30T18:30:00,2200.0,42.79,6.0312,0.038,-0.008,0.006,50.0,56.0,52.0,12.0,1504.2,231.7,-0.3,0.0,2192.875,13.16,0.038,101.9
11,2022-04-30T19:00:00,2200.0,42.79,6.0312,0.039,-0.01,0.004,54.0,55.0,55.0,12.0,1504.2,232.6,-0.3,0.2,2192.848,13.16,0.04,104.4
11,2022-04-30T19:30:00,2200.0,42.79,6.0312,0.027,-0.005,0.018,54.0,55.0,55.0,11.9,1504.2,235.8,-0.4,0.4,2192.905,13.16,0.027,100.5
11,2022-04-30T20:00:00,2200.0,42.79,6.0312,0.036,-0.002,-0.006,51.0,52.0,53.0,11.9,1504.2,235.0,-0.3,0.2,2192.859,13.16,0.036,93.2
11,2022-04-30T20:30:00,2200.0,42.79,6.0312,0.026,-0.006,0.0,50.0,53.0,51.0,12.0,1504.2,235.8,-0.5,0.4,2192.829,13.16,0.026,103.0
11,2022-04-30T21:00:00,2200.0,42.79,6.0312,0.031,-0.008,0.004,49.0,55.0,55.0,11.9,1504.2,237.3,-0.3,0.2,2192.813,13.16,0.032,104.5
